TimeCST,TemperatureF,Dew PointF,Humidity,Sea Level PressureIn,VisibilityMPH,Wind Direction,Wind SpeedMPH,Gust SpeedMPH,PrecipitationIn,Events,Conditions,WindDirDegrees,DateUTC
12:13 AM,30.2,23.0,75,30.20,10.0,SE,9.2,-,N/A,,Clear,140,2013-11-19 06:13:00
12:33 AM,30.2,23.0,75,30.19,10.0,SE,10.4,-,N/A,,Clear,140,2013-11-19 06:33:00
12:53 AM,30.2,23.0,75,30.19,10.0,SE,9.2,-,N/A,,Clear,140,2013-11-19 06:53:00
1:13 AM,30.2,23.0,75,30.18,10.0,SE,10.4,-,N/A,,Clear,140,2013-11-19 07:13:00
1:33 AM,32.0,23.0,69,30.17,10.0,SE,10.4,-,N/A,,Clear,140,2013-11-19 07:33:00
1:53 AM,32.0,24.8,75,30.17,10.0,SE,9.2,-,N/A,,Clear,130,2013-11-19 07:53:00
2:13 AM,32.0,24.8,75,30.17,10.0,SSE,10.4,-,N/A,,Clear,150,2013-11-19 08:13:00
2:33 AM,30.2,24.8,80,30.16,10.0,SSE,10.4,-,N/A,,Clear,150,2013-11-19 08:33:00
2:53 AM,30.2,24.8,80,30.15,10.0,SSE,12.7,-,N/A,,Clear,150,2013-11-19 08:53:00
3:13 AM,32.0,24.8,75,30.15,10.0,SSE,12.7,18.4,N/A,,Clear,150,2013-11-19 09:13:00
3:33 AM,32.0,26.6,80,30.14,10.0,SSE,13.8,-,N/A,,Clear,150,2013-11-19 09:33:00
3:53 AM,32.0,26.6,80,30.13,10.0,SSE,15.0,-,N/A,,Clear,150,2013-11-19 09:53:00
4:13 AM,32.0,26.6,80,30.12,10.0,SSE,12.7,-,N/A,,Clear,150,2013-11-19 10:13:00
4:33 AM,32.0,26.6,80,30.12,10.0,SSE,11.5,-,N/A,,Clear,150,2013-11-19 10:33:00
4:53 AM,32.0,26.6,80,30.11,10.0,SSE,15.0,18.4,N/A,,Clear,150,2013-11-19 10:53:00
5:13 AM,32.0,26.6,80,30.10,10.0,SSE,13.8,-,N/A,,Clear,150,2013-11-19 11:13:00
5:33 AM,32.0,26.6,80,30.10,10.0,SSE,16.1,20.7,N/A,,Clear,150,2013-11-19 11:33:00
5:53 AM,32.0,26.6,80,30.09,10.0,SSE,16.1,24.2,N/A,,Clear,150,2013-11-19 11:53:00
6:13 AM,32.0,26.6,80,30.09,10.0,SSE,16.1,21.9,N/A,,Clear,150,2013-11-19 12:13:00
6:33 AM,32.0,26.6,80,30.08,10.0,SSE,16.1,20.7,N/A,,Clear,150,2013-11-19 12:33:00
6:53 AM,32.0,26.6,80,30.08,10.0,SSE,13.8,21.9,N/A,,Clear,160,2013-11-19 12:53:00
7:13 AM,32.0,26.6,80,30.07,10.0,SSE,13.8,-,N/A,,Clear,150,2013-11-19 13:13:00
7:33 AM,32.0,26.6,80,30.07,10.0,SSE,13.8,-,N/A,,Clear,150,2013-11-19 13:33:00
7:53 AM,32.0,26.6,80,30.07,10.0,SSE,13.8,-,N/A,,Clear,150,2013-11-19 13:53:00
8:13 AM,33.8,26.6,75,30.06,10.0,SSE,18.4,25.3,N/A,,Clear,160,2013-11-19 14:13:00
8:33 AM,33.8,26.6,75,30.06,10.0,SSE,17.3,25.3,N/A,,Clear,160,2013-11-19 14:33:00
8:53 AM,35.6,28.4,75,30.07,10.0,SSE,17.3,25.3,N/A,,Clear,160,2013-11-19 14:53:00
9:13 AM,35.6,28.4,75,30.06,10.0,South,15.0,-,N/A,,Clear,170,2013-11-19 15:13:00
9:34 AM,37.4,28.4,70,30.06,10.0,South,18.4,25.3,N/A,,Clear,170,2013-11-19 15:34:00
9:53 AM,39.2,28.4,65,30.06,10.0,South,17.3,21.9,N/A,,Clear,170,2013-11-19 15:53:00
10:13 AM,41.0,28.4,61,30.05,10.0,South,21.9,25.3,N/A,,Clear,170,2013-11-19 16:13:00
10:32 AM,42.8,30.2,61,30.04,10.0,South,19.6,23.0,N/A,,Clear,170,2013-11-19 16:32:00
10:53 AM,44.6,30.2,57,30.02,10.0,South,20.7,25.3,N/A,,Clear,170,2013-11-19 16:53:00
11:13 AM,44.6,28.4,53,30.00,10.0,SSE,19.6,26.5,N/A,,Clear,160,2013-11-19 17:13:00
11:33 AM,46.4,28.4,50,29.99,10.0,South,21.9,32.2,N/A,,Clear,180,2013-11-19 17:33:00
11:54 AM,48.2,28.4,46,29.98,10.0,SSE,17.3,29.9,N/A,,Clear,160,2013-11-19 17:54:00
12:13 PM,50.0,28.4,43,29.97,10.0,SSE,19.6,27.6,N/A,,Clear,160,2013-11-19 18:13:00
12:33 PM,51.8,28.4,41,29.96,10.0,South,18.4,25.3,N/A,,Clear,180,2013-11-19 18:33:00
12:54 PM,51.8,28.4,41,29.95,10.0,South,19.6,24.2,N/A,,Clear,170,2013-11-19 18:54:00
1:13 PM,51.8,28.4,41,29.94,10.0,South,20.7,25.3,N/A,,Clear,170,2013-11-19 19:13:00
1:33 PM,51.8,30.2,44,29.93,10.0,South,19.6,29.9,N/A,,Clear,170,2013-11-19 19:33:00
1:54 PM,51.8,30.2,44,29.91,10.0,SSE,16.1,31.1,N/A,,Clear,160,2013-11-19 19:54:00
2:13 PM,51.8,30.2,44,29.90,10.0,South,19.6,27.6,N/A,,Clear,170,2013-11-19 20:13:00
2:33 PM,51.8,32.0,47,29.89,10.0,SSE,21.9,27.6,N/A,,Clear,160,2013-11-19 20:33:00
2:54 PM,51.8,32.0,47,29.88,10.0,SSE,25.3,33.4,N/A,,Clear,160,2013-11-19 20:54:00
3:13 PM,51.8,32.0,47,29.88,10.0,SSE,25.3,33.4,N/A,,Clear,160,2013-11-19 21:13:00
3:33 PM,51.8,32.0,47,29.87,10.0,SSE,21.9,31.1,N/A,,Clear,160,2013-11-19 21:33:00
3:54 PM,51.8,32.0,47,29.87,10.0,SSE,21.9,27.6,N/A,,Clear,160,2013-11-19 21:54:00
4:13 PM,53.6,28.4,38,29.87,10.0,South,23.0,32.2,N/A,,Clear,170,2013-11-19 22:13:00
4:33 PM,51.8,28.4,41,29.87,10.0,SSE,20.7,29.9,N/A,,Clear,160,2013-11-19 22:33:00
4:53 PM,51.8,28.4,41,29.86,10.0,SSE,18.4,28.8,N/A,,Clear,160,2013-11-19 22:53:00
5:13 PM,51.8,28.4,41,29.86,10.0,SSE,17.3,24.2,N/A,,Clear,150,2013-11-19 23:13:00
5:33 PM,50.0,30.2,47,29.86,10.0,SSE,21.9,26.5,N/A,,Clear,160,2013-11-19 23:33:00
5:53 PM,50.0,30.2,47,29.86,10.0,SSE,19.6,28.8,N/A,,Clear,160,2013-11-19 23:53:00
6:13 PM,50.0,30.2,47,29.86,10.0,SSE,21.9,33.4,N/A,,Clear,160,2013-11-20 00:13:00
6:33 PM,48.2,30.2,50,29.86,10.0,SSE,23.0,34.5,N/A,,Clear,160,2013-11-20 00:33:00
6:53 PM,48.2,28.4,46,29.86,10.0,SSE,21.9,34.5,N/A,,Clear,160,2013-11-20 00:53:00
7:13 PM,48.2,28.4,46,29.86,10.0,SSE,25.3,31.1,N/A,,Clear,160,2013-11-20 01:13:00
7:33 PM,48.2,28.4,46,29.86,10.0,SSE,26.5,36.8,N/A,,Clear,160,2013-11-20 01:33:00
7:53 PM,46.4,28.4,50,29.86,10.0,SSE,24.2,32.2,N/A,,Clear,160,2013-11-20 01:53:00
8:13 PM,46.4,28.4,50,29.85,10.0,SSE,24.2,35.7,N/A,,Clear,160,2013-11-20 02:13:00
8:33 PM,46.4,28.4,50,29.85,10.0,South,25.3,33.4,N/A,,Scattered Clouds,170,2013-11-20 02:33:00
8:53 PM,46.4,28.4,50,29.85,10.0,SSE,24.2,33.4,N/A,,Mostly Cloudy,160,2013-11-20 02:53:00
9:13 PM,46.4,28.4,50,29.86,10.0,South,25.3,32.2,N/A,,Mostly Cloudy,170,2013-11-20 03:13:00
9:33 PM,46.4,28.4,50,29.86,10.0,South,20.7,36.8,N/A,,Scattered Clouds,170,2013-11-20 03:33:00
9:53 PM,46.4,28.4,50,29.86,10.0,South,23.0,32.2,N/A,,Scattered Clouds,170,2013-11-20 03:53:00
10:13 PM,44.6,28.4,53,29.86,10.0,South,24.2,33.4,N/A,,Scattered Clouds,170,2013-11-20 04:13:00
10:34 PM,44.6,28.4,53,29.85,10.0,SSE,25.3,35.7,N/A,,Clear,160,2013-11-20 04:34:00
10:53 PM,44.6,30.2,57,29.85,10.0,South,21.9,33.4,N/A,,Clear,170,2013-11-20 04:53:00
11:13 PM,44.6,30.2,57,29.85,10.0,South,20.7,27.6,N/A,,Clear,180,2013-11-20 05:13:00
11:33 PM,44.6,30.2,57,29.86,10.0,South,23.0,28.8,N/A,,Mostly Cloudy,170,2013-11-20 05:33:00
11:53 PM,44.6,30.2,57,29.86,10.0,South,21.9,27.6,N/A,,Overcast,170,2013-11-20 05:53:00